Location: Henham
(51.9333°N, 0.2500°E)
Time: 19:25:28
(UTC+00:00)

ATLAS CENTAUR R/B - Pass Details

Date: 23 October 2019
Orbit: 456 x 692 km, 64.6° (Epoch: 31 October)

Event Time Altitude Azimuth Distance (km) Brightness Sun altitude
Rises 20:07:36 0° 316° (NW) 2,941 6.0 -30.9°
Reaches altitude 10° 20:09:59 10° 316° (NW) 1,992 4.9 -31.2°
Enters shadow 20:12:14 29° 313° (NW) 1,129 3.4 -31.5°
